Weather in Carleton Place

Canada     45°08′29″N   76°08′52″W
temp.,
°C
wind,
m/s
gust,
m/s
humid.,
%
clouds,
%
prec.,
mm/h
press.,
hPa
HPBL,
m
25 january, mon
mon2501:00−15wnw128944 0.0 102320
04:00−13w119393 0.0 102320
07:00−14sse129457 0.0 102220
10:00−9ssw248916 0.0 1022207
13:00−3ssw237953 0.0 1020567
16:00−3sse128997 0.0 101981
19:00−6s239594 0.1 102060
22:00−9sw129427 0.0 102021
26 january, tue
tue2601:00−10e119744 0.0 102021
04:00−11ene229798 0.1 101973
07:00−12ene259899 0.1 1019121
10:00−9ene3695100 0.1 1018279
13:00−7ene4792100 0.1 1016360
16:00−7ene4993100 0.2 1013449
19:00−8ene51293100 0.7 1013431
22:00−8ne41095100 1.4 1012457
27 january, wed
wed2701:00−7nne3895100 2.2 1012484
04:00−7n3795100 0.6 1014304
07:00−8nnw3695100 1.1 1015234
10:00−8nw4792100 0.0 1017282
13:00−6nw369099 0.1 1016411
16:00−6nw3791100 0.0 1016463
19:00−7nw389499 0.1 1018253
22:00−8nw4993100 0.1 1019285
28 january, thu
thu2801:00−13nw51193100 0.1 1019333
04:00−15nw6139299 0.0 1020422
07:00−16nw6138999 0.1 1022483
10:00−15nw6128675 0.0 1024573
13:00−13nw6108486 0.0 1023651
16:00−14nw6128297 0.0 1023766
19:00−16nw6148586 0.0 1024717
22:00−17nw5138794 0.0 1024713
29 january, fri
fri2901:00−19nw6138779 0.0 1024626
04:00−20nw6138999 0.0 1024689
07:00−19nw6138799 0.0 1026643
10:00−18nw6128679 0.0 1027524
13:00−14nw5108585 0.0 1026544
16:00−13nw5108698 0.0 1026542
19:00−14nw5128964 0.0 1027468
22:00−16nw4119137 0.0 1028391